DIRECTV 4S (26985 NORAD) Tracking and Keplerian Element Data

This shows tracking and keplerian element data for the satellite.

Feedback or suggestion? Click here.




ElementValue
Catalog26985
NameDIRECTV 4S
Epoch Orbit2232
Epoch Day198.8939442
Epoch Year2018
RAAN72.7754
Inclination0.0184
Eccentricity0.0002683
Argument of Perigee27.9001
Mean Anonmoly55.5917
Mean Motion1.00271488
Decay Rate-1.33E-06
L11 26985U 01052A 18198.89394420 -.00000133 00000-0 00000-0 0 9992
L22 26985 0.0184 72.7754 0002683 27.9001 55.5917 1.00271488 22327

Live tracking and technical data element details for DIRECTV 4S (NORAD 26985). DIRECTV 4S can be tracked NOW for your location showing map with azimuth and elevation plus other details from your city location.

Track the satellite on the map from your city or location and see movement details for azimuth, elevation, latitude, longitude, range, height, and movement on the map or in text.







IsCatalogInMostPopularTable: catalog: 26985, numindb: 37
Update: records affected: 1



GetName: 26985 DIRECTV 4S

Hit Count: updated at: Sat, 21 Jul 2018 07:43:48 GMT